TimeIDT,TemperatureF,Dew PointF,Humidity,Sea Level PressureIn,VisibilityMPH,Wind Direction,Wind SpeedMPH,Gust SpeedMPH,PrecipitationIn,Events,Conditions,WindDirDegrees,DateUTC
12:20 AM,75.2,62.6,65,29.95,6.2,Variable,3.5,-,N/A,,Partly Cloudy,0,2013-09-26 21:20:00
12:50 AM,73.4,62.6,69,29.95,6.2,ESE,4.6,-,N/A,,Partly Cloudy,110,2013-09-26 21:50:00
1:20 AM,73.4,60.8,65,29.92,6.2,Variable,3.5,-,N/A,,Partly Cloudy,0,2013-09-26 22:20:00
1:50 AM,71.6,60.8,69,29.92,6.2,Variable,3.5,-,N/A,,Scattered Clouds,0,2013-09-26 22:50:00
2:20 AM,71.6,60.8,69,29.92,6.2,Variable,2.3,-,N/A,,Partly Cloudy,0,2013-09-26 23:20:00
2:50 AM,71.6,60.8,69,29.92,6.2,East,4.6,-,N/A,,Partly Cloudy,100,2013-09-26 23:50:00
3:00 AM,71,61,63,29.93,6,East,4.6,,,,Scattered Clouds,100,2013-09-27 00:00:00
3:20 AM,69.8,60.8,73,29.92,6.2,Variable,2.3,-,N/A,,Partly Cloudy,0,2013-09-27 00:20:00
3:50 AM,69.8,60.8,73,29.92,6.2,Variable,2.3,-,N/A,,Partly Cloudy,0,2013-09-27 00:50:00
4:20 AM,69.8,60.8,73,29.92,6.2,Variable,2.3,-,N/A,,Mostly Cloudy,0,2013-09-27 01:20:00
4:50 AM,71.6,62.6,73,29.92,6.2,Variable,3.5,-,N/A,,Mostly Cloudy,0,2013-09-27 01:50:00
5:20 AM,71.6,60.8,69,29.92,6.2,Variable,1.2,-,N/A,,Mostly Cloudy,0,2013-09-27 02:20:00
5:50 AM,71.6,62.6,73,29.92,6.2,SSE,4.6,-,N/A,,Mostly Cloudy,160,2013-09-27 02:50:00
6:20 AM,69.8,60.8,73,29.92,6.2,Variable,2.3,-,N/A,,Scattered Clouds,0,2013-09-27 03:20:00
6:50 AM,71.6,60.8,69,29.92,6.2,Variable,1.2,-,N/A,,Scattered Clouds,0,2013-09-27 03:50:00
7:20 AM,71.6,62.6,73,29.92,6.2,Variable,3.5,-,N/A,,Scattered Clouds,0,2013-09-27 04:20:00
7:50 AM,73.4,62.6,69,29.92,6.2,Variable,3.5,-,N/A,,Partly Cloudy,0,2013-09-27 04:50:00
8:20 AM,75.2,62.6,65,29.92,6.2,SE,4.6,-,N/A,,Partly Cloudy,140,2013-09-27 05:20:00
8:50 AM,77.0,62.6,61,29.92,6.2,Variable,3.5,-,N/A,,Partly Cloudy,0,2013-09-27 05:50:00
9:00 AM,77,63,53,29.94,6,,3.5,,,,Scattered Clouds,,2013-09-27 06:00:00
9:20 AM,80.6,64.4,58,29.92,6.2,Variable,1.2,-,N/A,,Partly Cloudy,0,2013-09-27 06:20:00
9:50 AM,78.8,64.4,61,29.92,6.2,Variable,3.5,-,N/A,,Scattered Clouds,0,2013-09-27 06:50:00
10:20 AM,82.4,62.6,51,29.92,6.2,North,4.6,-,N/A,,Scattered Clouds,10,2013-09-27 07:20:00
10:50 AM,80.6,64.4,58,29.92,6.2,NW,8.1,-,N/A,,Mostly Cloudy,310,2013-09-27 07:50:00
11:20 AM,80.6,64.4,58,29.92,6.2,NW,6.9,-,N/A,,Mostly Cloudy,310,2013-09-27 08:20:00
11:50 AM,82.4,64.4,54,29.89,6.2,WNW,8.1,-,N/A,,Mostly Cloudy,290,2013-09-27 08:50:00
12:20 PM,82.4,62.6,51,29.89,6.2,NW,10.4,-,N/A,,Mostly Cloudy,310,2013-09-27 09:20:00
12:50 PM,82.4,62.6,51,29.89,6.2,WNW,11.5,-,N/A,,Scattered Clouds,290,2013-09-27 09:50:00
1:20 PM,82.4,62.6,51,29.86,6.2,NW,10.4,-,N/A,,Scattered Clouds,310,2013-09-27 10:20:00
1:50 PM,82.4,62.6,51,29.86,6.2,NW,10.4,-,N/A,,Partly Cloudy,320,2013-09-27 10:50:00
2:20 PM,82.4,62.6,51,29.86,6.2,NW,13.8,-,N/A,,Partly Cloudy,310,2013-09-27 11:20:00
2:50 PM,82.4,62.6,51,29.86,6.2,NW,11.5,-,N/A,,Partly Cloudy,310,2013-09-27 11:50:00
3:00 PM,82,63,42,29.86,6,NW,12.7,,,,Scattered Clouds,320,2013-09-27 12:00:00
3:20 PM,82.4,62.6,51,29.86,6.2,WNW,13.8,-,N/A,,Partly Cloudy,300,2013-09-27 12:20:00
3:50 PM,80.6,62.6,54,29.86,6.2,WNW,15.0,-,N/A,,Scattered Clouds,300,2013-09-27 12:50:00
4:20 PM,80.6,62.6,54,29.86,6.2,NW,15.0,-,N/A,,Scattered Clouds,320,2013-09-27 13:20:00
4:50 PM,80.6,62.6,54,29.86,6.2,NW,11.5,-,N/A,,Scattered Clouds,310,2013-09-27 13:50:00
5:20 PM,78.8,62.6,57,29.86,6.2,NW,12.7,-,N/A,,Mostly Cloudy,320,2013-09-27 14:20:00
5:50 PM,78.8,62.6,57,29.86,6.2,NNW,11.5,-,N/A,,Mostly Cloudy,330,2013-09-27 14:50:00
6:20 PM,78.8,60.8,54,29.86,6.2,NW,11.5,-,N/A,,Mostly Cloudy,310,2013-09-27 15:20:00
6:50 PM,77.0,62.6,61,29.86,6.2,NW,9.2,-,N/A,,Mostly Cloudy,310,2013-09-27 15:50:00
7:20 PM,77.0,62.6,61,29.86,6.2,NW,8.1,-,N/A,,Mostly Cloudy,310,2013-09-27 16:20:00
7:50 PM,77.0,62.6,61,29.89,6.2,WNW,5.8,-,N/A,,Scattered Clouds,300,2013-09-27 16:50:00
8:20 PM,77.0,62.6,61,29.89,6.2,NNW,5.8,-,N/A,,Mostly Cloudy,330,2013-09-27 17:20:00
8:50 PM,77.0,62.6,61,29.89,6.2,Variable,3.5,-,N/A,,Scattered Clouds,0,2013-09-27 17:50:00
9:00 PM,77,62,51,29.90,6,,3.5,,,,Partly Cloudy,,2013-09-27 18:00:00
9:20 PM,77.0,62.6,61,29.89,6.2,WNW,4.6,-,N/A,,Scattered Clouds,290,2013-09-27 18:20:00
9:50 PM,75.2,60.8,61,29.89,6.2,Variable,2.3,-,N/A,,Mostly Cloudy,0,2013-09-27 18:50:00
10:20 PM,77.0,62.6,61,29.89,6.2,Variable,3.5,-,N/A,,Mostly Cloudy,0,2013-09-27 19:20:00
10:50 PM,75.2,62.6,65,29.89,6.2,West,5.8,-,N/A,,Scattered Clouds,280,2013-09-27 19:50:00
11:20 PM,75.2,62.6,65,29.89,6.2,West,5.8,-,N/A,,Scattered Clouds,280,2013-09-27 20:20:00
11:50 PM,73.4,60.8,65,29.89,6.2,WSW,4.6,-,N/A,,Partly Cloudy,250,2013-09-27 20:50:00